Location: Newark
(27.9675°N, 86.8869°E)
Time: 21:04:24
(UTC+00:00)

Vanguard 3 - Pass Details

Date: 30 October 2019
Orbit: 508 x 3263 km, 33.3° (Epoch: 16 November)

Event Time Altitude Azimuth Distance (km) Brightness Sun altitude
Rises 17:54:10 0° 289° (WNW) 3,217 - -75.9°
Reaches altitude 10° 17:56:59 10° 294° (WNW) 2,038 - -75.9°
Maximum altitude 18:01:14 51° 11° (N) 669 - -75.8°
Drops below altitude 10° 18:04:48 10° 89° (E) 1,709 - -75.7°
Sets 18:06:58 0° 95° (E) 2,631 - -75.7°
